COSMOS 1290

Satellite information

Favourite Embed

Satellite Type and Status

PAYLOADIN ORBIT

Key statistics

Satellite COSMOS 1290 at a glance.

Uptime

15986

Days in orbit

Revolutions

≈ 12.5

Per day

Orbit

LEO

Low Earth Orbit

Inclination

74.0

Latest

Satellite identification and parameters

Extended collection of information and parameters for COSMOS 1290.

Object identification

Identified? True

Debris? False

Object name: COSMOS 1290

International designator: 1981-074D

Object number (NORAD): 12639

Object ID (CCSDS): 12639

Country: COMMONWEALTH OF INDEPENDENT STATES (CIS)

Current information (Y/N): Y

RCS size: MEDIUM

Orbital parameters

Period: 114.94 minutes

Inclination: 74.0362 deg

SMA: 7830.83 km

Apoapsis: 1464.001 km

Periapsis: 1441.39 km

RAAN: 36.4789 deg

Eccentricy: 0.0014437

Argument of periapsis: 65.8306 deg

Mean anomaly: 351.7096 deg

Mean motion: 12.52826816 rev/day

Mean motion (dot): -0.00000009 rev/day2

B* drag term: 0.000040534 1/REarth

Two-line elements (TLE)

Creation date: May 12, 2025, 2:31 a.m.

Reference frame: TEME

Reference center: EARTH

Epoch: May 11, 2025, 7:24 p.m. UTC

TLE line 0: 0 COSMOS 1290

TLE line 1: 1 12639U 81074D 25131.80869641 -.00000009 00000-0 40534-4 0 9995

TLE line 2: 2 12639 74.0362 36.4789 0014437 65.8306 351.7096 12.52826816 1394

Live tracking on map

Real-time ground track for satellite COSMOS 1290.

In-orbit conjunctions

There are no conjunctions computed for COSMOS 1290, at the moment. Check back to stay up to date, as we update our databases every day.

Go to all conjunctions

Associated space launch

Military communications satellites

COSMOS 1290 was lifted into orbit during the mission ‘Kosmos-3M | Strela-1M 217-224’, on board a Kosmos-3M space rocket.

The launch took place on Aug. 6, 1981, 11:49 a.m. from 132/2.

For more information about the launch, click the button.

Launch to space Kosmos-3M | Strela-1M 217-224
Kosmos-3M | Strela-1M 217-224

Agency: N/A

Status: Launch Successful

Launch date: Aug. 6, 1981, 11:49 a.m. UTC

Rocket: Kosmos-3M

Launch pad: 132/2

Location: Plesetsk Cosmodrome, Russian Federation

...

Latest news about this satellite

There are no fresh news available about this satellite. Check back as we update our databases every day.


Newsletter sign-up

Weekly statistics, charts and insights to help you stay on top of the space industry.